{"data":{"norad_id":44034,"epoch":"2026-09-19T03:28:15.430656Z","epoch_age_seconds":139019,"freshness":"FRESH","line1":"1 44034U 19007A   26262.14462304  .00000148  00000+0  00000+0 0  9995","line2":"2 44034   0.0631 130.8061 0006258  29.3270 288.9994  1.00271497 28314","mean_motion":1.00271497,"eccentricity":0.0006258,"inclination_deg":0.0631,"raan_deg":130.8061,"arg_perigee_deg":29.327,"mean_anomaly_deg":288.9994,"bstar":0,"rev_number":2831,"period_min":1436.1010287899,"perigee_km":35760.288958452,"apogee_km":35813.062438025,"semimajor_km":42164.812698239,"source":"CELESTRAK","updated_at":"2026-09-20T09:00:35.265267Z"}}